Location: Chandrammap?lem
(16.9200°N, 81.0051°E)
Time: 02:58:57
(UTC+00:00)

Cosmos 2369 Rocket - Pass Details

Date: 29 May 2024
Orbit: 829 x 851 km, 71.0° (Epoch: 17 June)

Event Time Altitude Azimuth Distance (km) Brightness Sun altitude
Rises 13:49:55 0° 11° (N) 3,370 5.5 -10.5°
Reaches altitude 10° 13:53:32 10° 35° (NE) 2,439 4.5 -11.3°
Maximum altitude 13:56:32 15° 67° (ENE) 2,129 3.9 -12.0°
Enters shadow 13:58:26 13° 89° (E) 2,261 3.9 -12.4°
